TimeCDT,TemperatureF,Dew PointF,Humidity,Sea Level PressureIn,VisibilityMPH,Wind Direction,Wind SpeedMPH,Gust SpeedMPH,PrecipitationIn,Events,Conditions,WindDirDegrees,DateUTC
12:15 AM,-9999,-9999,N/A,30.02,10.0,North,10.4,16.1,N/A,,Mostly Cloudy,10,2012-09-08 05:15:00
12:35 AM,-9999,-9999,N/A,30.02,10.0,North,13.8,17.3,N/A,,Overcast,10,2012-09-08 05:35:00
12:55 AM,-9999,-9999,N/A,30.03,10.0,NNE,10.4,-,N/A,,Overcast,20,2012-09-08 05:55:00
1:15 AM,-9999,-9999,N/A,30.03,10.0,NNE,11.5,-,N/A,,Overcast,20,2012-09-08 06:15:00
1:35 AM,-9999,-9999,N/A,30.04,10.0,North,9.2,-,N/A,,Mostly Cloudy,10,2012-09-08 06:35:00
1:55 AM,-9999,-9999,N/A,30.04,10.0,North,11.5,-,N/A,,Scattered Clouds,10,2012-09-08 06:55:00
2:15 AM,-9999,-9999,N/A,30.04,10.0,North,10.4,17.3,N/A,,Partly Cloudy,10,2012-09-08 07:15:00
2:35 AM,-9999,-9999,N/A,30.05,10.0,North,11.5,17.3,N/A,,Clear,10,2012-09-08 07:35:00
2:55 AM,-9999,-9999,N/A,30.05,10.0,North,13.8,19.6,N/A,,Clear,10,2012-09-08 07:55:00
3:15 AM,-9999,-9999,N/A,30.06,10.0,North,10.4,-,N/A,,Clear,10,2012-09-08 08:15:00
3:35 AM,-9999,-9999,N/A,30.06,10.0,North,11.5,17.3,N/A,,Clear,10,2012-09-08 08:35:00
3:55 AM,-9999,-9999,N/A,30.06,10.0,North,9.2,-,N/A,,Clear,10,2012-09-08 08:55:00
4:15 AM,-9999,-9999,N/A,30.06,10.0,North,8.1,-,N/A,,Clear,10,2012-09-08 09:15:00
4:35 AM,-9999,-9999,N/A,30.06,10.0,North,8.1,-,N/A,,Clear,360,2012-09-08 09:35:00
4:55 AM,-9999,-9999,N/A,30.06,10.0,North,6.9,-,N/A,,Clear,10,2012-09-08 09:55:00
5:15 AM,-9999,-9999,N/A,30.06,10.0,North,6.9,-,N/A,,Clear,10,2012-09-08 10:15:00
5:35 AM,-9999,-9999,N/A,30.07,10.0,North,4.6,-,N/A,,Partly Cloudy,10,2012-09-08 10:35:00
5:55 AM,-9999,-9999,N/A,30.07,10.0,North,4.6,-,N/A,,Partly Cloudy,360,2012-09-08 10:55:00
6:15 AM,-9999,-9999,N/A,30.08,10.0,North,4.6,-,N/A,,Clear,360,2012-09-08 11:15:00
6:35 AM,-9999,-9999,N/A,30.08,10.0,North,3.5,-,N/A,,Clear,360,2012-09-08 11:35:00
6:55 AM,-9999,-9999,N/A,30.08,10.0,Calm,Calm,-,N/A,,Clear,0,2012-09-08 11:55:00
7:15 AM,-9999,-9999,N/A,30.09,10.0,NW,3.5,-,N/A,,Clear,320,2012-09-08 12:15:00
7:35 AM,57.2,53.6,88,30.10,9.0,Calm,Calm,-,N/A,,Clear,0,2012-09-08 12:35:00
7:55 AM,57.2,53.6,88,30.10,10.0,North,4.6,-,N/A,,Scattered Clouds,350,2012-09-08 12:55:00
8:15 AM,57.2,55.4,94,30.11,10.0,North,9.2,-,N/A,,Partly Cloudy,360,2012-09-08 13:15:00
8:35 AM,-9999,-9999,N/A,30.11,10.0,North,10.4,-,N/A,,Clear,10,2012-09-08 13:35:00
8:55 AM,-9999,-9999,N/A,30.12,10.0,North,6.9,-,N/A,,Clear,360,2012-09-08 13:55:00
9:15 AM,-9999,-9999,N/A,30.13,10.0,North,9.2,-,N/A,,Clear,360,2012-09-08 14:15:00
9:35 AM,62.6,53.6,72,30.14,10.0,North,11.5,-,N/A,,Clear,360,2012-09-08 14:35:00
9:55 AM,64.4,53.6,68,30.14,10.0,North,9.2,-,N/A,,Clear,350,2012-09-08 14:55:00
10:15 AM,-9999,-9999,N/A,30.14,10.0,NNE,11.5,17.3,N/A,,Clear,20,2012-09-08 15:15:00
10:35 AM,-9999,-9999,N/A,30.14,10.0,North,11.5,-,N/A,,Clear,350,2012-09-08 15:35:00
10:55 AM,-9999,-9999,N/A,30.14,10.0,North,12.7,17.3,N/A,,Clear,360,2012-09-08 15:55:00
11:15 AM,-9999,-9999,N/A,30.14,10.0,North,11.5,21.9,N/A,,Clear,360,2012-09-08 16:15:00
11:35 AM,-9999,-9999,N/A,30.14,10.0,North,17.3,-,N/A,,Clear,350,2012-09-08 16:35:00
11:55 AM,-9999,-9999,N/A,30.14,10.0,NNW,13.8,18.4,N/A,,Clear,340,2012-09-08 16:55:00
12:15 PM,-9999,-9999,N/A,30.14,10.0,NNW,12.7,20.7,N/A,,Clear,340,2012-09-08 17:15:00
12:35 PM,69.8,48.2,46,30.14,10.0,North,12.7,18.4,N/A,,Clear,350,2012-09-08 17:35:00
12:55 PM,-9999,-9999,N/A,30.14,10.0,North,16.1,20.7,N/A,,Clear,10,2012-09-08 17:55:00
1:15 PM,-9999,-9999,N/A,30.13,10.0,NNW,12.7,19.6,N/A,,Clear,340,2012-09-08 18:15:00
1:35 PM,-9999,-9999,N/A,30.12,10.0,North,12.7,20.7,N/A,,Clear,350,2012-09-08 18:35:00
1:55 PM,-9999,-9999,N/A,30.12,10.0,NNE,12.7,17.3,N/A,,Clear,20,2012-09-08 18:55:00
2:15 PM,-9999,-9999,N/A,30.11,10.0,North,10.4,17.3,N/A,,Clear,350,2012-09-08 19:15:00
2:35 PM,71.6,46.4,41,30.11,10.0,NNW,12.7,20.7,N/A,,Clear,340,2012-09-08 19:35:00
3:15 PM,-9999,-9999,N/A,30.09,10.0,NNW,10.4,16.1,N/A,,Clear,330,2012-09-08 20:15:00
3:35 PM,-9999,-9999,N/A,30.08,10.0,North,11.5,16.1,N/A,,Clear,360,2012-09-08 20:35:00
3:55 PM,-9999,-9999,N/A,30.07,10.0,North,10.4,17.3,N/A,,Clear,350,2012-09-08 20:55:00
4:15 PM,-9999,-9999,N/A,30.07,10.0,NW,10.4,18.4,N/A,,Clear,320,2012-09-08 21:15:00
4:35 PM,-9999,-9999,N/A,30.06,10.0,NW,9.2,16.1,N/A,,Clear,310,2012-09-08 21:35:00
4:55 PM,73.4,44.6,36,30.07,10.0,North,5.8,-,N/A,,Clear,350,2012-09-08 21:55:00
5:15 PM,73.4,46.4,38,30.06,10.0,NNW,10.4,-,N/A,,Clear,340,2012-09-08 22:15:00
5:35 PM,73.4,46.4,38,30.06,10.0,North,11.5,-,N/A,,Clear,360,2012-09-08 22:35:00
5:55 PM,73.4,44.6,36,30.06,10.0,North,9.2,-,N/A,,Clear,350,2012-09-08 22:55:00
6:15 PM,-9999,-9999,N/A,30.06,10.0,NNW,9.2,-,N/A,,Clear,340,2012-09-08 23:15:00
6:35 PM,-9999,-9999,N/A,30.06,10.0,North,9.2,-,N/A,,Clear,350,2012-09-08 23:35:00
6:55 PM,-9999,-9999,N/A,30.06,10.0,NNW,6.9,-,N/A,,Clear,340,2012-09-08 23:55:00
7:15 PM,69.8,46.4,43,30.07,10.0,NNW,5.8,-,N/A,,Clear,340,2012-09-09 00:15:00
7:35 PM,69.8,46.4,43,30.07,10.0,NNW,5.8,-,N/A,,Clear,340,2012-09-09 00:35:00
7:55 PM,68.0,46.4,46,30.07,10.0,NW,3.5,-,N/A,,Clear,320,2012-09-09 00:55:00
8:15 PM,64.4,48.2,56,30.07,10.0,Calm,Calm,-,N/A,,Clear,0,2012-09-09 01:15:00
8:35 PM,62.6,48.2,59,30.08,10.0,Calm,Calm,-,N/A,,Clear,0,2012-09-09 01:35:00
8:55 PM,60.8,48.2,63,30.08,10.0,Calm,Calm,-,N/A,,Clear,0,2012-09-09 01:55:00
9:15 PM,60.8,48.2,63,30.09,10.0,Calm,Calm,-,N/A,,Clear,0,2012-09-09 02:15:00
9:35 PM,60.8,48.2,63,30.10,10.0,Calm,Calm,-,N/A,,Clear,0,2012-09-09 02:35:00
9:55 PM,59.0,50.0,72,30.10,10.0,Calm,Calm,-,N/A,,Clear,0,2012-09-09 02:55:00
10:15 PM,59.0,50.0,72,30.10,10.0,Calm,Calm,-,N/A,,Clear,0,2012-09-09 03:15:00
10:35 PM,-9999,-9999,N/A,30.09,10.0,Calm,Calm,-,N/A,,Clear,0,2012-09-09 03:35:00
10:55 PM,-9999,-9999,N/A,30.10,10.0,Calm,Calm,-,N/A,,Clear,0,2012-09-09 03:55:00
11:15 PM,-9999,-9999,N/A,30.10,10.0,Calm,Calm,-,N/A,,Clear,0,2012-09-09 04:15:00
11:55 PM,-9999,-9999,N/A,30.09,10.0,Calm,Calm,-,N/A,,Clear,0,2012-09-09 04:55:00